Location: Cactus School
(34.5700°N, 118.0931°W)
Time: 02:41:25
(UTC-07:00)

Courier 1B - Pass Details

Date: 30 April 2024
Orbit: 962 x 1208 km, 28.3° (Epoch: 23 May)

Event Time Altitude Azimuth Distance (km) Brightness Sun altitude
Rises 20:34:56 0° 217° (SW) 3,989 10.8 -11.8°
Reaches altitude 10° 20:38:19 10° 204° (SSW) 3,064 10.1 -12.4°
Maximum altitude 20:44:07 24° 154° (SSE) 2,251 8.9 -13.4°
Enters shadow 20:47:18 18° 122° (ESE) 2,547 9.0 -14.0°
